RH
88 97 93 84 85 89 84 95 86 82 66 75 84 83 78 81 74 74 64 69 71 81 83 78 79 82 97 95 94 94 98 96 95 95 95 97 97 94 85 80 75 76 75 73
87 95 71 66 70 74 85 83 91 75 64 69 69 81 75 78 85 87 88 91 92 89 89 82 80 96 98 96 94 96 97 98 98 96 92 91 94 93 84 79 74 80 79 79
92 71 57 54 59 71 80 86 82 78 67 68 76 80 81 64 67 67 74 80 89 88 87 92 91 94 97 97 96 95 94 98 99 97 98 98 96 95 93 86 84 82 79 81
77 60 59 61 64 70 89 65 67 69 85 91 68 96 84 73 75 74 77 82 92 96 97 96 94 94 94 98 98 97 96 97 97 98 98 98 95 96 91 89 87 86 78 78
58 64 67 69 61 66 75 64 74 79 90 90 74 96 75 81 92 84 88 85 95 97 95 98 96 93 96 98 98 98 97 96 96 97 91 95 95 91 96 96 98 91 86 80
66 57 62 60 55 63 62 78 81 87 90 97 90 89 92 96 87 84 80 82 92 98 96 96 97 97 98 99 98 99 98 96 95 94 88 89 91 91 94 94 96 96 94 92
70 59 54 56 70 64 70 86 96 94 98 96 82 86 100 68 60 68 90 86 92 93 97 98 98 98 98 99 99 98 97 96 97 96 94 87 88 90 88 88 90 91 93 95
93 80 59 56 67 76 82 95 97 96 96 97 77 97 96 66 53 57 72 77 87 91 94 95 96 98 99 99 98 97 97 98 97 93 93 93 91 93 92 88 89 86 85 85
92 80 57 56 63 71 78 96 92 99 85 93 96 88 69 72 62 60 59 73 90 92 91 92 91 92 96 96 97 98 97 98 98 97 93 93 95 96 95 94 96 97 90 97
74 90 62 64 59 58 72 71 89 94 93 99 94 98 95 88 75 69 66 66 68 85 87 90 88 82 71 83 96 97 97 98 99 99 98 99 98 98 98 95 97 98 98 99
82 73 62 68 73 82 69 81 88 90 91 96 99 99 93 81 72 84 71 65 61 63 67 82 81 78 75 74 84 96 98 97 99 98 98 99 99 99 98 98 99 99 98 98
76 78 96 86 71 58 65 74 92 94 91 84 94 99 82 69 67 74 73 71 66 63 64 64 72 71 78 80 85 92 96 99 98 98 98 98 99 99 99 98 98 98 98 98
76 86 90 55 51 56 69 65 71 88 91 95 94 95 65 72 68 78 77 77 76 69 67 68 67 66 68 78 78 85 91 98 99 99 98 99 99 99 99 100 99 98 98 98
64 91 77 72 68 74 82 67 64 81 94 94 92 87 88 88 77 86 88 83 81 79 74 74 77 76 72 69 78 82 85 90 96 99 98 98 99 98 98 99 99 99 99 99
59 78 88 73 72 72 71 69 58 83 87 86 81 89 91 92 91 91 92 84 82 83 82 80 82 85 83 80 74 74 84 89 91 93 98 99 99 98 99 99 99 99 99 99
78 90 93 84 72 82 80 64 63 58 68 73 82 83 86 90 92 93 93 91 92 92 90 88 84 87 88 93 88 78 80 90 89 94 97 97 97 97 97 96 97 98 98 98
85 95 94 74 81 74 54 58 59 72 76 75 90 76 89 86 91 94 94 94 94 92 92 94 94 93 93 94 94 92 87 89 89 89 90 92 95 96 95 94 93 93 90 86
80 95 94 89 79 33 30 68 70 76 77 75 82 88 87 88 92 93 93 95 93 92 87 91 94 92 93 93 92 93 92 92 90 90 90 91 89 91 93 93 94 94 92 90
82 88 96 82 94 49 60 80 81 82 67 78 81 83 87 86 92 91 89 91 92 92 88 90 92 92 93 93 94 93 91 91 89 92 93 92 92 91 90 91 92 94 98 98
76 85 89 95 66 35 32 74 77 64 46 68 79 82 87 90 98 92 88 88 86 87 86 88 89 91 91 93 93 92 93 93 94 94 93 93 92 92 92 91 92 93 93 95
93 95 80 94 92 58 46 79 71 51 15 82 83 82 89 92 87 81 86 83 83 85 84 86 89 92 93 93 92 93 93 95 95 94 94 92 92 92 93 93 93 93 94 95
62 82 90 92 92 32 75 81 59 40 84 84 86 84 88 86 84 82 76 78 76 84 86 86 87 90 90 91 91 92 93 94 95 94 93 94 93 93 96 95 95 94 96 96
68 51 52 60 46 37 78 67 68 70 77 84 85 84 85 85 84 79 70 76 72 71 82 86 87 88 89 90 91 91 92 94 95 93 94 93 92 93 95 95 95 96 97 98
66 66 64 52 43 55 51 63 73 74 77 79 82 82 86 84 80 72 72 74 76 73 72 87 87 87 88 90 91 91 92 93 94 94 95 94 92 92 92 92 94 96 95 95
51 66 66 69 55 57 52 58 56 76 76 77 78 79 79 78 74 75 76 78 78 78 77 87 89 90 88 89 90 89 91 92 94 95 96 96 94 88 88 91 97 97 92 90
67 56 53 41 36 30 27 51 57 75 78 75 74 75 73 73 74 73 77 79 78 79 82 89 91 90 89 87 87 86 84 89 92 93 96 96 96 93 92 93 92 88 91 92
Wind_Speed
3 2 6 11 9 9 10 9 11 12 15 8 8 12 12 22 21 15 13 13 12 11 14 11 13 15 12 11 9 10 7 3 13 15 14 11 11 10 9 10 15 16 13 14
3 9 13 12 10 10 12 12 11 10 7 5 11 4 12 17 17 14 11 10 12 9 13 13 16 13 13 9 11 9 10 3 5 9 12 12 11 9 10 10 13 14 14 14
7 10 8 2 3 3 3 5 5 5 8 5 5 2 17 22 18 24 23 19 11 18 16 14 12 11 8 9 12 12 10 9 4 6 5 8 9 5 5 7 7 10 12 13
6 4 3 4 4 4 4 6 4 7 6 4 3 3 12 22 19 25 27 28 22 8 12 11 12 12 8 3 6 8 9 7 4 5 5 10 9 9 7 7 6 8 12 12
7 4 4 3 5 2 8 5 7 2 1 3 6 2 10 16 20 23 23 23 19 8 7 10 11 9 8 8 5 8 8 7 9 8 9 10 9 9 8 8 7 5 6 9
6 5 2 3 10 3 6 3 1 2 3 2 6 3 6 16 20 20 22 25 26 11 6 7 6 8 9 6 3 17 2 4 9 11 12 14 13 11 12 11 12 10 8 7
7 6 7 3 7 4 8 3 3 5 2 2 7 6 3 16 18 15 19 21 19 20 6 11 11 8 8 9 9 3 4 4 6 11 10 13 13 14 16 15 12 12 9 7
4 9 7 8 3 4 5 3 4 3 2 1 6 6 4 13 14 15 15 18 19 19 17 17 15 7 8 7 3 2 3 3 8 13 15 10 11 9 7 11 8 10 10 10
4 5 5 4 4 3 4 4 2 2 3 5 3 2 4 16 18 18 18 18 19 22 18 17 16 13 6 4 4 3 5 6 7 6 13 13 8 7 6 6 3 3 6 4
2 3 2 7 6 5 3 3 2 3 4 3 2 1 5 13 17 16 18 18 16 15 17 16 13 12 9 4 3 4 1 4 6 4 7 6 10 8 6 5 5 5 3 5
1 4 7 5 6 5 7 5 4 2 2 5 3 2 5 7 10 10 12 13 14 15 13 11 11 11 11 10 6 4 1 2 3 4 8 9 8 8 6 5 4 5 3 4
3 3 1 4 5 3 1 3 2 4 3 3 4 1 7 7 7 7 10 11 11 11 12 12 12 12 12 11 10 10 6 1 3 4 4 6 7 6 5 4 3 1 1 3
1 3 4 9 7 5 5 6 2 3 2 2 4 2 1 7 6 8 8 10 10 12 14 14 14 13 12 11 11 10 10 7 2 3 5 4 4 5 4 3 4 6 5 4
4 3 5 6 6 3 5 6 3 3 4 2 3 2 3 6 8 7 10 9 9 10 12 12 12 12 11 11 10 10 10 10 7 3 4 5 5 4 4 4 5 3 5 7
4 4 1 4 5 3 5 6 6 3 4 5 3 3 2 3 4 7 6 7 9 11 12 11 11 11 12 13 13 11 10 10 8 8 7 6 4 4 4 3 2 2 2 3
4 2 2 4 3 3 4 5 5 4 2 3 3 5 4 2 1 3 6 7 7 7 8 9 9 8 9 9 10 9 9 9 7 9 8 6 6 5 5 4 3 0 3 3
3 3 4 5 5 5 6 4 4 3 4 4 3 4 3 4 5 2 2 4 5 6 7 8 8 7 7 8 7 8 7 7 9 9 8 8 7 6 4 4 3 1 2 3
2 3 2 4 5 5 7 3 3 5 7 7 3 4 5 1 3 3 2 2 6 6 6 5 6 7 7 6 8 6 7 8 8 8 7 7 6 5 3 2 1 2 3 2
3 3 3 3 2 8 1 1 4 2 7 6 7 5 5 3 3 5 4 2 1 3 4 4 3 3 5 7 7 7 8 7 8 8 7 6 5 4 3 2 1 0 1 2
3 4 5 2 2 4 3 1 3 3 6 4 7 7 6 4 0 4 4 2 3 4 2 4 6 5 7 8 7 7 8 8 9 9 7 5 4 5 4 3 3 1 2 2
3 3 3 2 3 9 6 4 2 3 7 5 6 6 7 5 5 3 3 2 1 2 4 3 4 3 4 6 6 7 7 10 8 7 6 7 6 6 4 2 1 2 2 2
5 4 3 2 1 5 6 3 7 7 1 3 5 6 7 5 4 4 3 2 1 2 3 1 3 3 4 4 5 5 6 6 7 7 7 7 7 5 5 6 3 3 2 2
3 7 4 9 8 4 9 7 6 5 5 6 5 6 7 6 6 5 4 3 3 4 3 1 2 1 2 4 4 4 6 6 6 5 6 6 6 5 4 4 4 3 3 3
5 4 4 2 4 10 12 9 6 8 7 6 6 7 7 7 6 5 3 3 3 4 4 2 2 3 1 1 1 2 5 5 6 6 6 6 5 6 5 4 3 3 3 2
4 6 5 7 11 8 12 11 11 11 8 6 5 7 8 7 5 5 4 4 5 5 4 3 3 3 3 2 2 3 4 4 5 5 5 6 4 4 5 4 3 3 3 3
8 9 7 10 11 5 7 4 5 11 13 11 9 6 5 7 7 6 5 5 4 5 3 3 3 3 2 2 1 2 4 4 4 5 4 4 4 4 4 5 6 6 8 10
Wind_Direction
214 230 244 259 229 241 257 272 276 277 278 294 268 282 3 342 323 307 282 258 260 257 260 228 201 182 182 196 142 123 81 41 185 163 166 158 167 184 173 178 168 172 177 181
226 245 250 255 264 251 263 272 272 268 292 282 290 305 19 329 337 321 341 296 263 241 244 251 199 171 199 171 124 119 140 97 255 148 160 166 162 185 180 193 164 177 175 179
221 251 296 277 306 293 281 251 268 273 324 293 329 306 6 339 350 354 3 347 299 242 239 184 176 174 183 166 136 154 161 149 248 150 146 151 154 138 149 184 159 176 178 179
230 263 284 323 285 224 290 268 308 311 19 302 45 284 1 341 342 1 355 347 336 195 149 146 148 167 179 111 106 111 140 152 214 133 160 167 160 164 163 172 160 173 184 181
265 304 326 300 258 207 239 259 255 277 294 313 323 88 352 346 352 358 349 333 341 135 123 132 138 140 149 124 183 159 107 163 199 192 182 178 181 164 159 154 130 172 181 183
255 272 271 259 301 246 303 312 66 76 134 28 304 21 341 352 335 338 346 358 2 3 115 105 111 108 99 114 87 62 321 236 197 189 192 184 170 160 164 172 165 172 192 198
328 320 310 2 329 329 5 30 30 19 39 99 323 51 42 342 342 352 342 356 1 6 57 65 58 73 81 71 58 98 354 354 247 202 186 179 165 161 169 169 171 173 180 193
41 342 346 332 323 286 320 26 130 138 96 95 356 23 2 346 353 7 2 1 1 12 19 38 31 50 71 79 71 124 99 328 304 205 190 182 154 147 160 171 181 180 193 195
30 296 325 330 306 11 331 39 261 76 58 70 338 322 287 348 360 5 8 14 12 2 18 18 26 11 32 40 54 22 28 357 344 176 192 171 146 131 126 114 135 199 182 164
319 341 333 295 6 343 68 332 70 2 74 82 3 21 11 348 351 1 10 12 14 13 9 19 7 3 355 2 350 315 274 16 17 8 96 86 110 107 101 117 141 131 135 139
52 114 301 20 8 320 348 11 19 78 26 146 145 37 339 340 351 348 6 9 14 18 13 12 12 10 8 30 24 336 265 131 102 65 79 93 79 92 108 112 106 98 131 127
346 120 40 262 287 304 102 4 101 108 290 47 142 85 309 323 338 21 12 6 12 18 12 20 24 17 15 15 16 20 14 109 157 123 96 97 92 98 96 111 130 133 261 199
339 22 21 344 349 3 31 329 11 136 42 16 106 231 123 341 1 3 17 7 12 8 14 17 20 18 16 13 17 17 14 7 12 156 132 117 122 94 62 124 168 201 204 223
85 87 143 173 213 229 318 324 357 79 84 219 234 255 313 350 352 354 355 -0 360 8 12 11 12 12 14 16 7 16 14 13 11 50 123 143 110 93 30 349 48 93 224 197
82 116 221 226 249 268 252 280 327 81 189 127 236 228 239 295 318 331 328 347 6 5 11 10 6 360 4 10 6 12 9 16 18 47 57 65 43 129 147 154 115 76 15 37
359 160 104 308 322 319 280 272 271 249 197 250 240 261 176 251 295 324 345 352 357 350 352 355 1 6 4 -0 356 356 8 13 21 40 43 33 62 70 59 68 24 0 141 122
47 100 49 284 340 340 359 240 207 265 206 181 196 230 182 191 200 241 309 336 334 344 344 350 349 349 356 0 342 359 4 12 36 34 25 28 28 30 25 46 58 302 220 142
103 80 89 264 356 19 235 270 229 239 251 222 199 189 202 147 156 189 236 338 346 335 339 339 344 344 351 344 360 356 14 26 38 37 32 19 15 22 348 42 81 282 300 283
56 106 48 90 200 288 311 206 172 171 289 203 204 183 187 137 142 258 216 221 258 293 298 307 324 328 342 0 352 0 16 21 26 20 13 359 6 354 353 346 16 133 55 337
75 71 113 56 104 217 238 194 142 115 299 206 171 195 174 137 0 256 210 224 288 317 307 342 348 351 7 355 356 14 12 18 14 358 344 338 347 0 344 341 339 358 31 323
10 4 136 179 254 284 239 169 139 64 242 161 179 178 168 189 202 195 174 191 229 273 313 349 12 17 9 353 14 24 8 11 335 330 333 343 345 346 345 347 20 343 333 323
200 150 210 93 21 312 161 79 168 212 205 208 186 185 192 210 193 212 232 223 314 348 346 352 352 354 348 10 30 30 20 322 326 338 348 351 354 356 358 357 5 12 1 309
255 190 199 189 221 230 208 207 217 180 172 198 192 208 204 199 209 198 206 232 287 310 306 281 269 260 324 10 14 7 334 329 332 356 357 352 348 357 1 357 348 340 350 330
239 170 224 8 262 235 232 240 225 205 213 198 204 192 181 205 194 204 213 251 267 279 292 278 290 290 304 314 301 294 315 332 349 359 354 344 355 352 357 355 351 329 312 292
209 144 197 260 278 267 258 235 232 209 202 201 191 187 191 185 198 197 210 237 253 263 279 266 274 285 272 245 275 319 330 357 6 356 349 343 335 356 342 338 312 289 253 248
185 193 180 226 220 204 246 234 212 202 202 190 172 179 182 176 190 189 216 226 234 257 261 261 267 266 266 252 237 353 345 4 9 358 350 344 343 346 344 337 327 309 291 300